^^
Saratoga-Weather Station Historical Data
Daily Summary for September 18, 2020 Units:  Metric    English   Both
Daily Weekly Monthly Yearly Custom
  High: Low: Average:
Temperature: 27.4 °C 11.9 °C 18.8 °C
Dew Point: 14.7 °C 7.3 °C 10.9 °C
Humidity: 76% 45% 61%
Wind Speed: 14.3km/h 0km/h 2.5km/h
Wind Gust: 20.9km/h - -
Wind- - ESE
Pressure: 1021.3 hPa 1016.9 hPa -
Precipitation: 0.0 mm    
Historical Graphs
 
 
Tabular Data for September 18, 2020
Time Temperature Dew Point Pressure Wind Wind Speed Wind Gust Humidity Rainfall Rate (Hourly) solar
00:03 16.3 °C 8 °C 1021.3 hPa ENE 1.4 km/h 3.2 km/h 58% 0.0 mm 0 W/m2
00:08 16.2 °C 8.2 °C 1021.3 hPa Calm   3.2 km/h 59% 0.0 mm 0 W/m2
00:13 16 °C 8 °C 1021.3 hPa SE 1.4 km/h 1.6 km/h 59% 0.0 mm 0 W/m2
00:18 15.9 °C 7.9 °C 1021.3 hPa Calm   1.6 km/h 59% 0.0 mm 0 W/m2
00:23 15.8 °C 8 °C 1021.3 hPa ESE 1.4 km/h 3.2 km/h 60% 0.0 mm 0 W/m2
00:28 15.7 °C 8.2 °C 1021.3 hPa ESE 1.4 km/h 1.6 km/h 61% 0.0 mm 0 W/m2
00:33 15.6 °C 8.1 °C 1021.3 hPa Calm   4.8 km/h 61% 0.0 mm 0 W/m2
00:38 15.4 °C 7.9 °C 1021.3 hPa SE 3.2 km/h 3.2 km/h 61% 0.0 mm 0 W/m2
00:43 15.4 °C 7.9 °C 1021.0 hPa SE 1.4 km/h 3.2 km/h 61% 0.0 mm 0 W/m2
00:48 15.3 °C 7.8 °C 1021.0 hPa SE 1.4 km/h 4.8 km/h 61% 0.0 mm 0 W/m2
00:53 15.2 °C 8 °C 1021.0 hPa Calm   4.8 km/h 62% 0.0 mm 0 W/m2
00:58 15.2 °C 8 °C 1021.0 hPa Calm   3.2 km/h 62% 0.0 mm 0 W/m2
01:03 15.1 °C 7.9 °C 1021.0 hPa ESE 3.2 km/h 4.8 km/h 62% 0.0 mm 0 W/m2
01:08 15.1 °C 7.9 °C 1021.0 hPa ESE 1.4 km/h 3.2 km/h 62% 0.0 mm 0 W/m2
01:13 15.1 °C 7.9 °C 1021.0 hPa ESE 1.4 km/h 3.2 km/h 62% 0.0 mm 0 W/m2
01:18 15 °C 7.8 °C 1021.0 hPa SE 3.2 km/h 4.8 km/h 62% 0.0 mm 0 W/m2
01:23 14.9 °C 7.7 °C 1020.7 hPa SE 1.4 km/h 3.2 km/h 62% 0.0 mm 0 W/m2
01:28 14.8 °C 7.6 °C 1020.7 hPa ESE 3.2 km/h 3.2 km/h 62% 0.0 mm 0 W/m2
01:33 14.8 °C 7.6 °C 1020.7 hPa Calm   3.2 km/h 62% 0.0 mm 0 W/m2
01:38 14.7 °C 7.7 °C 1020.7 hPa ESE 1.4 km/h 1.6 km/h 63% 0.0 mm 0 W/m2
01:43 14.7 °C 7.7 °C 1020.7 hPa ESE 1.4 km/h 1.6 km/h 63% 0.0 mm 0 W/m2
01:48 14.5 °C 7.5 °C 1020.7 hPa SE 1.4 km/h 3.2 km/h 63% 0.0 mm 0 W/m2
01:53 14.4 °C 7.7 °C 1020.7 hPa SE 1.4 km/h 3.2 km/h 64% 0.0 mm 0 W/m2
01:58 14.3 °C 7.6 °C 1020.7 hPa Calm   1.6 km/h 64% 0.0 mm 0 W/m2
02:03 14.2 °C 7.7 °C 1020.7 hPa Calm   3.2 km/h 65% 0.0 mm 0 W/m2
02:08 14.1 °C 7.6 °C 1020.7 hPa East 3.2 km/h 3.2 km/h 65% 0.0 mm 0 W/m2
02:13 14 °C 7.5 °C 1020.7 hPa Calm   4.8 km/h 65% 0.0 mm 0 W/m2
02:18 14.1 °C 7.6 °C 1020.7 hPa East 6.4 km/h 6.4 km/h 65% 0.0 mm 0 W/m2
02:23 14.1 °C 7.6 °C 1020.7 hPa Calm   3.2 km/h 65% 0.0 mm 0 W/m2
02:28 14.2 °C 7.7 °C 1020.7 hPa Calm   1.6 km/h 65% 0.0 mm 0 W/m2
02:33 14.1 °C 7.8 °C 1020.7 hPa ESE 4.7 km/h 4.8 km/h 66% 0.0 mm 0 W/m2
02:38 14 °C 7.5 °C 1020.7 hPa ESE 1.4 km/h 3.2 km/h 65% 0.0 mm 0 W/m2
02:43 13.9 °C 7.4 °C 1020.7 hPa ESE 3.2 km/h 3.2 km/h 65% 0.0 mm 0 W/m2
02:48 13.9 °C 7.4 °C 1020.7 hPa Calm   4.8 km/h 65% 0.0 mm 0 W/m2
02:53 14 °C 7.5 °C 1020.7 hPa ESE 1.4 km/h 6.4 km/h 65% 0.0 mm 0 W/m2
02:58 14 °C 7.5 °C 1020.7 hPa Calm   3.2 km/h 65% 0.0 mm 0 W/m2
03:03 13.9 °C 7.4 °C 1020.7 hPa ESE 1.4 km/h 6.4 km/h 65% 0.0 mm 0 W/m2
03:08 13.8 °C 7.3 °C 1020.7 hPa SE 1.4 km/h 3.2 km/h 65% 0.0 mm 0 W/m2
03:13 13.8 °C 7.3 °C 1020.3 hPa ESE 1.4 km/h 3.2 km/h 65% 0.0 mm 0 W/m2
03:18 13.8 °C 7.3 °C 1020.3 hPa ESE 3.2 km/h 3.2 km/h 65% 0.0 mm 0 W/m2
03:23 13.8 °C 7.6 °C 1020.3 hPa SE 3.2 km/h 3.2 km/h 66% 0.0 mm 0 W/m2
03:28 13.8 °C 7.6 °C 1020.0 hPa SE 1.4 km/h 4.8 km/h 66% 0.0 mm 0 W/m2
03:33 13.7 °C 7.5 °C 1020.3 hPa SE 3.2 km/h 3.2 km/h 66% 0.0 mm 0 W/m2
03:38 13.6 °C 7.6 °C 1020.3 hPa ESE 4.7 km/h 4.8 km/h 67% 0.0 mm 0 W/m2
03:43 13.4 °C 7.4 °C 1020.3 hPa SSE 3.2 km/h 3.2 km/h 67% 0.0 mm 0 W/m2
03:48 13.4 °C 7.6 °C 1020.3 hPa Calm   1.6 km/h 68% 0.0 mm 0 W/m2
03:53 13.3 °C 7.5 °C 1020.3 hPa Calm   1.6 km/h 68% 0.0 mm 0 W/m2
03:58 13.2 °C 7.4 °C 1020.3 hPa SSE 3.2 km/h 3.2 km/h 68% 0.0 mm 0 W/m2
04:03 13.1 °C 7.5 °C 1020.3 hPa SSE 1.4 km/h 1.6 km/h 69% 0.0 mm 0 W/m2
04:08 13 °C 7.4 °C 1020.3 hPa Calm   3.2 km/h 69% 0.0 mm 0 W/m2
04:13 12.9 °C 7.3 °C 1020.3 hPa Calm   1.6 km/h 69% 0.0 mm 0 W/m2
04:18 13 °C 7.4 °C 1020.3 hPa East 3.2 km/h 4.8 km/h 69% 0.0 mm 0 W/m2
04:23 13 °C 7.7 °C 1020.3 hPa Calm   1.6 km/h 70% 0.0 mm 0 W/m2
04:28 12.9 °C 7.6 °C 1020.3 hPa SE 1.4 km/h 1.6 km/h 70% 0.0 mm 0 W/m2
04:33 12.8 °C 7.5 °C 1020.3 hPa Calm     70% 0.0 mm 0 W/m2
04:38 12.7 °C 7.6 °C 1020.3 hPa Calm   1.6 km/h 71% 0.0 mm 0 W/m2
04:43 12.5 °C 7.4 °C 1020.3 hPa SE 1.4 km/h 1.6 km/h 71% 0.0 mm 0 W/m2
04:48 12.3 °C 7.4 °C 1020.3 hPa Calm   1.6 km/h 72% 0.0 mm 0 W/m2
04:53 12.2 °C 7.5 °C 1020.0 hPa SE 1.4 km/h 3.2 km/h 73% 0.0 mm 0 W/m2
04:58 12.2 °C 7.5 °C 1020.3 hPa ESE 4.7 km/h 4.8 km/h 73% 0.0 mm 0 W/m2
05:03 12.3 °C 7.6 °C 1020.3 hPa ESE 1.4 km/h 3.2 km/h 73% 0.0 mm 0 W/m2
05:08 12.3 °C 7.6 °C 1020.0 hPa ESE 3.2 km/h 3.2 km/h 73% 0.0 mm 0 W/m2
05:13 12.3 °C 7.6 °C 1020.3 hPa SSE 1.4 km/h 3.2 km/h 73% 0.0 mm 0 W/m2
05:18 12.3 °C 7.6 °C 1020.3 hPa East 1.4 km/h 3.2 km/h 73% 0.0 mm 0 W/m2
05:23 12.2 °C 7.5 °C 1020.3 hPa SE 1.4 km/h 3.2 km/h 73% 0.0 mm 0 W/m2
05:28 12.2 °C 7.5 °C 1020.3 hPa ESE 1.4 km/h 3.2 km/h 73% 0.0 mm 0 W/m2
05:33 12.3 °C 7.6 °C 1020.3 hPa Calm   1.6 km/h 73% 0.0 mm 0 W/m2
05:38 12.2 °C 7.7 °C 1020.3 hPa ESE 1.4 km/h 1.6 km/h 74% 0.0 mm 0 W/m2
05:43 12.2 °C 7.7 °C 1020.3 hPa ESE 1.4 km/h 3.2 km/h 74% 0.0 mm 0 W/m2
05:48 12.2 °C 7.7 °C 1020.3 hPa ESE 1.4 km/h 3.2 km/h 74% 0.0 mm 0 W/m2
05:53 12.1 °C 7.6 °C 1020.3 hPa ESE 1.4 km/h 1.6 km/h 74% 0.0 mm 0 W/m2
05:58 12.1 °C 7.6 °C 1020.3 hPa Calm   4.8 km/h 74% 0.0 mm 0 W/m2
06:03 12.1 °C 7.8 °C 1020.3 hPa East 1.4 km/h 4.8 km/h 75% 0.0 mm 0 W/m2
06:08 12.1 °C 7.8 °C 1020.3 hPa ESE 1.4 km/h 3.2 km/h 75% 0.0 mm 0 W/m2
06:13 12.1 °C 7.8 °C 1020.3 hPa Calm   1.6 km/h 75% 0.0 mm 0 W/m2
06:18 12 °C 7.7 °C 1020.3 hPa Calm   1.6 km/h 75% 0.0 mm 0 W/m2
06:23 11.9 °C 7.6 °C 1020.3 hPa Calm   1.6 km/h 75% 0.0 mm 0 W/m2
06:28 11.9 °C 7.8 °C 1020.3 hPa ESE 1.4 km/h 3.2 km/h 76% 0.0 mm 0 W/m2
06:33 11.9 °C 7.8 °C 1020.3 hPa SSE 1.4 km/h 3.2 km/h 76% 0.0 mm 0 W/m2
06:38 11.9 °C 7.8 °C 1020.3 hPa Calm   3.2 km/h 76% 0.0 mm 0 W/m2
06:43 11.9 °C 7.8 °C 1020.3 hPa SE 1.4 km/h 3.2 km/h 76% 0.0 mm 0 W/m2
06:48 11.9 °C 7.8 °C 1020.3 hPa SE 1.4 km/h 1.6 km/h 76% 0.0 mm 0 W/m2
06:53 11.9 °C 7.8 °C 1020.3 hPa ESE 1.4 km/h 3.2 km/h 76% 0.0 mm 0 W/m2
06:58 11.9 °C 7.8 °C 1020.3 hPa Calm   3.2 km/h 76% 0.0 mm 0 W/m2
07:03 11.9 °C 7.8 °C 1020.3 hPa SSE 1.4 km/h 3.2 km/h 76% 0.0 mm 0 W/m2
07:08 11.9 °C 7.8 °C 1020.0 hPa SSE 1.4 km/h 3.2 km/h 76% 0.0 mm 0 W/m2
07:13 12 °C 7.9 °C 1020.3 hPa Calm   3.2 km/h 76% 0.0 mm 0 W/m2
07:18 12 °C 7.9 °C 1020.3 hPa Calm   3.2 km/h 76% 0.0 mm 0 W/m2
07:23 12.1 °C 8 °C 1020.3 hPa SSE 1.4 km/h 3.2 km/h 76% 0.0 mm 5 W/m2
07:28 12.1 °C 8 °C 1020.3 hPa SSE 1.4 km/h 3.2 km/h 76% 0.0 mm 9 W/m2
07:33 12.1 °C 8 °C 1020.3 hPa Calm   1.6 km/h 76% 0.0 mm 12 W/m2
07:38 12.1 °C 8 °C 1020.3 hPa Calm     76% 0.0 mm 14 W/m2
07:43 12.1 °C 8 °C 1020.3 hPa Calm     76% 0.0 mm 16 W/m2
07:49 12 °C 7.9 °C 1020.3 hPa Calm     76% 0.0 mm 19 W/m2
07:54 12 °C 7.9 °C 1020.3 hPa Calm     76% 0.0 mm 21 W/m2
07:59 12.1 °C 8 °C 1020.3 hPa Calm   1.6 km/h 76% 0.0 mm 25 W/m2
08:04 12.1 °C 8 °C 1020.3 hPa Calm   3.2 km/h 76% 0.0 mm 26 W/m2
08:09 12.2 °C 8.1 °C 1020.3 hPa NE 1.4 km/h 3.2 km/h 76% 0.0 mm 28 W/m2
08:14 12.3 °C 8.2 °C 1020.3 hPa Calm   1.6 km/h 76% 0.0 mm 30 W/m2
08:19 12.3 °C 8 °C 1020.3 hPa NE 1.4 km/h 3.2 km/h 75% 0.0 mm 32 W/m2
08:24 12.3 °C 8 °C 1020.3 hPa NE 3.2 km/h 3.2 km/h 75% 0.0 mm 33 W/m2
08:29 12.4 °C 8.1 °C 1020.3 hPa North 3.2 km/h 3.2 km/h 75% 0.0 mm 69 W/m2
08:34 12.5 °C 8.2 °C 1020.3 hPa NE 3.2 km/h 4.8 km/h 75% 0.0 mm 91 W/m2
08:39 12.6 °C 8.3 °C 1020.7 hPa Calm   3.2 km/h 75% 0.0 mm 90 W/m2
08:44 12.7 °C 8.4 °C 1020.7 hPa Calm   1.6 km/h 75% 0.0 mm 40 W/m2
08:49 12.8 °C 8.5 °C 1020.3 hPa Calm   1.6 km/h 75% 0.0 mm 42 W/m2
08:54 12.9 °C 8.4 °C 1020.3 hPa East 3.2 km/h 4.8 km/h 74% 0.0 mm 76 W/m2
08:59 13 °C 8.5 °C 1020.3 hPa NNE 1.4 km/h 3.2 km/h 74% 0.0 mm 116 W/m2
09:04 13.2 °C 8.7 °C 1020.3 hPa SE 1.4 km/h 3.2 km/h 74% 0.0 mm 172 W/m2
09:09 13.3 °C 8.6 °C 1020.3 hPa NNE 1.4 km/h 3.2 km/h 73% 0.0 mm 181 W/m2
09:33 14.6 °C 9.2 °C 1020.7 hPa Calm   6.4 km/h 70% 0.0 mm 53 W/m2
09:38 14.8 °C 9.4 °C 1020.7 hPa ENE 1.4 km/h 4.8 km/h 70% 0.0 mm 53 W/m2
09:43 15.1 °C 9.2 °C 1020.7 hPa ESE 3.2 km/h 8 km/h 68% 0.0 mm 54 W/m2
09:48 15.3 °C 9.4 °C 1020.7 hPa NNE 3.2 km/h 8 km/h 68% 0.0 mm 54 W/m2
09:53 15.6 °C 9.7 °C 1020.7 hPa Calm   1.6 km/h 68% 0.0 mm 56 W/m2
09:58 15.8 °C 9.5 °C 1020.7 hPa ENE 7.9 km/h 8 km/h 66% 0.0 mm 56 W/m2
10:03 16.1 °C 10 °C 1020.7 hPa NE 6.4 km/h 6.4 km/h 67% 0.0 mm 58 W/m2
10:08 16.3 °C 9.9 °C 1020.7 hPa NE 1.4 km/h 4.8 km/h 66% 0.0 mm 58 W/m2
10:13 16.6 °C 10.2 °C 1020.7 hPa ESE 6.4 km/h 12.9 km/h 66% 0.0 mm 60 W/m2
10:18 16.7 °C 10.1 °C 1020.7 hPa ESE 4.7 km/h 11.3 km/h 65% 0.0 mm 60 W/m2
10:23 16.8 °C 10.2 °C 1020.7 hPa NE 3.2 km/h 12.9 km/h 65% 0.0 mm 62 W/m2
10:28 17.1 °C 10.5 °C 1020.7 hPa NE 7.9 km/h 8 km/h 65% 0.0 mm 62 W/m2
10:33 17.3 °C 10.7 °C 1020.7 hPa NNW 3.2 km/h 11.3 km/h 65% 0.0 mm 63 W/m2
10:38 17.4 °C 10.8 °C 1020.3 hPa East 3.2 km/h 6.4 km/h 65% 0.0 mm 65 W/m2
10:43 17.6 °C 10.7 °C 1020.3 hPa NNE 4.7 km/h 6.4 km/h 64% 0.0 mm 65 W/m2
10:48 17.9 °C 11 °C 1020.3 hPa NNE 4.7 km/h 11.3 km/h 64% 0.0 mm 65 W/m2
10:53 18.2 °C 11.5 °C 1020.3 hPa Calm   4.8 km/h 65% 0.0 mm 67 W/m2
10:58 18.7 °C 11.8 °C 1020.3 hPa NE 3.2 km/h 6.4 km/h 64% 0.0 mm 69 W/m2
11:03 18.9 °C 11.5 °C 1020.3 hPa NNE 14.3 km/h 14.5 km/h 62% 0.0 mm 69 W/m2
11:08 19.1 °C 11.6 °C 1020.3 hPa ENE 4.7 km/h 9.7 km/h 62% 0.0 mm 72 W/m2
11:13 19.3 °C 11.8 °C 1020.3 hPa ENE 6.4 km/h 9.7 km/h 62% 0.0 mm 74 W/m2
11:18 19.6 °C 11.9 °C 1020.3 hPa NNE 3.2 km/h 12.9 km/h 61% 0.0 mm 76 W/m2
11:23 19.7 °C 12 °C 1020.3 hPa ENE 4.7 km/h 14.5 km/h 61% 0.0 mm 79 W/m2
11:28 19.9 °C 11.9 °C 1020.3 hPa East 9.7 km/h 11.3 km/h 60% 0.0 mm 81 W/m2
11:33 20.1 °C 12.1 °C 1020.0 hPa East 11.1 km/h 14.5 km/h 60% 0.0 mm 81 W/m2
11:38 20.2 °C 11.9 °C 1020.0 hPa South 3.2 km/h 12.9 km/h 59% 0.0 mm 102 W/m2
11:43 20.3 °C 12 °C 1020.0 hPa East 4.7 km/h 6.4 km/h 59% 0.0 mm 420 W/m2
11:48 20.5 °C 12 °C 1020.0 hPa East 4.7 km/h 14.5 km/h 58% 0.0 mm 548 W/m2
11:53 20.6 °C 12 °C 1020.0 hPa SE 9.7 km/h 14.5 km/h 58% 0.0 mm 559 W/m2
11:58 20.8 °C 12.2 °C 1020.0 hPa NNE 3.2 km/h 14.5 km/h 58% 0.0 mm 566 W/m2
12:03 21.1 °C 12.2 °C 1020.0 hPa ENE 6.4 km/h 14.5 km/h 57% 0.0 mm 575 W/m2
12:08 21.2 °C 12.3 °C 1020.0 hPa ENE 13 km/h 12.9 km/h 57% 0.0 mm 584 W/m2
12:13 21.3 °C 12.2 °C 1020.0 hPa NNE 3.2 km/h 14.5 km/h 56% 0.0 mm 591 W/m2
12:18 21.6 °C 12.4 °C 1020.0 hPa SSE 3.2 km/h 9.7 km/h 56% 0.0 mm 592 W/m2
12:23 21.8 °C 12.6 °C 1020.0 hPa East 3.2 km/h 12.9 km/h 56% 0.0 mm 603 W/m2
12:28 22.1 °C 12.9 °C 1019.6 hPa East 11.1 km/h 14.5 km/h 56% 0.0 mm 608 W/m2
12:33 22.3 °C 12.8 °C 1019.6 hPa North 1.4 km/h 12.9 km/h 55% 0.0 mm 606 W/m2
12:38 22.6 °C 13.1 °C 1019.6 hPa NE 11.1 km/h 17.7 km/h 55% 0.0 mm 617 W/m2
12:43 22.7 °C 12.9 °C 1019.6 hPa East 4.7 km/h 12.9 km/h 54% 0.0 mm 622 W/m2
12:48 22.8 °C 13 °C 1019.6 hPa ESE 4.7 km/h 11.3 km/h 54% 0.0 mm 628 W/m2
12:53 22.8 °C 12.7 °C 1019.3 hPa NE 3.2 km/h 12.9 km/h 53% 0.0 mm 629 W/m2
12:58 22.9 °C 13.1 °C 1019.3 hPa NNE 6.4 km/h 11.3 km/h 54% 0.0 mm 633 W/m2
13:03 23.2 °C 13.1 °C 1019.3 hPa NE 4.7 km/h 16.1 km/h 53% 0.0 mm 633 W/m2
13:08 23.3 °C 13.2 °C 1019.3 hPa ESE 3.2 km/h 11.3 km/h 53% 0.0 mm 638 W/m2
13:13 23.4 °C 13 °C 1019.3 hPa East 7.9 km/h 17.7 km/h 52% 0.0 mm 636 W/m2
13:18 23.5 °C 13.1 °C 1019.0 hPa East 3.2 km/h 9.7 km/h 52% 0.0 mm 638 W/m2
13:23 23.7 °C 13.3 °C 1019.0 hPa East 3.2 km/h 17.7 km/h 52% 0.0 mm 633 W/m2
13:28 23.9 °C 13.1 °C 1019.0 hPa North 1.4 km/h 8 km/h 51% 0.0 mm 633 W/m2
13:33 23.9 °C 12.8 °C 1019.0 hPa ESE 4.7 km/h 14.5 km/h 50% 0.0 mm 635 W/m2
13:38 24 °C 13.2 °C 1019.0 hPa East 3.2 km/h 8 km/h 51% 0.0 mm 631 W/m2
13:43 24.3 °C 13.5 °C 1019.0 hPa SE 1.4 km/h 14.5 km/h 51% 0.0 mm 635 W/m2
13:48 24.5 °C 13.4 °C 1019.0 hPa ENE 1.4 km/h 11.3 km/h 50% 0.0 mm 633 W/m2
13:53 24.7 °C 13.6 °C 1019.0 hPa ESE 3.2 km/h 6.4 km/h 50% 0.0 mm 635 W/m2
13:59 24.9 °C 13.5 °C 1019.0 hPa ENE 1.4 km/h 11.3 km/h 49% 0.0 mm 633 W/m2
14:04 24.9 °C 13.5 °C 1019.0 hPa NNE 1.4 km/h 8 km/h 49% 0.0 mm 635 W/m2
14:09 24.9 °C 13.5 °C 1019.0 hPa East 3.2 km/h 11.3 km/h 49% 0.0 mm 628 W/m2
14:14 24.9 °C 13.5 °C 1019.0 hPa NE 1.4 km/h 8 km/h 49% 0.0 mm 622 W/m2
14:19 25.1 °C 13.6 °C 1019.0 hPa ESE 4.7 km/h 6.4 km/h 49% 0.0 mm 617 W/m2
14:24 25.1 °C 13.3 °C 1019.0 hPa NE 9.7 km/h 20.9 km/h 48% 0.0 mm 615 W/m2
14:29 25.1 °C 13.6 °C 1018.6 hPa SSE 9.7 km/h 14.5 km/h 49% 0.0 mm 610 W/m2
14:34 25.1 °C 13.9 °C 1018.6 hPa ENE 6.4 km/h 8 km/h 50% 0.0 mm 603 W/m2
14:39 25.3 °C 13.8 °C 1018.6 hPa ENE 6.4 km/h 11.3 km/h 49% 0.0 mm 599 W/m2
14:44 25.4 °C 13.6 °C 1018.6 hPa SSE 14.3 km/h 16.1 km/h 48% 0.0 mm 589 W/m2
14:49 25.4 °C 13.9 °C 1018.6 hPa SSE 6.4 km/h 17.7 km/h 49% 0.0 mm 585 W/m2
14:54 25.6 °C 14.1 °C 1018.6 hPa ENE 3.2 km/h 9.7 km/h 49% 0.0 mm 582 W/m2
14:59 25.8 °C 14 °C 1018.3 hPa NE 6.4 km/h 8 km/h 48% 0.0 mm 580 W/m2
15:04 25.8 °C 14 °C 1018.3 hPa South 1.4 km/h 6.4 km/h 48% 0.0 mm 575 W/m2
15:09 26 °C 14.1 °C 1018.3 hPa East 6.4 km/h 14.5 km/h 48% 0.0 mm 570 W/m2
15:14 26 °C 13.8 °C 1018.3 hPa ENE 4.7 km/h 17.7 km/h 47% 0.0 mm 564 W/m2
15:19 26.1 °C 14.2 °C 1018.3 hPa ENE 3.2 km/h 11.3 km/h 48% 0.0 mm 554 W/m2
15:24 26.2 °C 14 °C 1018.3 hPa ESE 3.2 km/h 17.7 km/h 47% 0.0 mm 547 W/m2
15:29 26.5 °C 14.3 °C 1018.3 hPa ESE 7.9 km/h 8 km/h 47% 0.0 mm 538 W/m2
15:34 26.7 °C 14.5 °C 1018.0 hPa SSE 3.2 km/h 11.3 km/h 47% 0.0 mm 533 W/m2
15:39 26.8 °C 14.2 °C 1018.0 hPa NE 4.7 km/h 9.7 km/h 46% 0.0 mm 529 W/m2
15:44 26.8 °C 14.2 °C 1018.0 hPa NNW 1.4 km/h 14.5 km/h 46% 0.0 mm 520 W/m2
15:49 26.8 °C 14.2 °C 1018.0 hPa ENE 3.2 km/h 11.3 km/h 46% 0.0 mm 513 W/m2
15:54 26.9 °C 14.3 °C 1017.6 hPa Calm   14.5 km/h 46% 0.0 mm 506 W/m2
15:59 27.2 °C 14.6 °C 1017.6 hPa Calm   11.3 km/h 46% 0.0 mm 501 W/m2
16:04 27.3 °C 14.3 °C 1017.6 hPa ENE 3.2 km/h 8 km/h 45% 0.0 mm 499 W/m2
16:09 27.3 °C 14.3 °C 1017.6 hPa NE 4.7 km/h 12.9 km/h 45% 0.0 mm 497 W/m2
16:14 27.3 °C 14.3 °C 1017.6 hPa SE 6.4 km/h 11.3 km/h 45% 0.0 mm 487 W/m2
16:20 27.3 °C 14.7 °C 1017.6 hPa North 3.2 km/h 16.1 km/h 46% 0.0 mm 485 W/m2
16:25 27.4 °C 14.4 °C 1017.6 hPa North 6.4 km/h 12.9 km/h 45% 0.0 mm 480 W/m2
16:30 27.3 °C 14.3 °C 1017.6 hPa ESE 6.4 km/h 9.7 km/h 45% 0.0 mm 469 W/m2
16:35 27.4 °C 14.4 °C 1017.6 hPa ENE 4.7 km/h 12.9 km/h 45% 0.0 mm 452 W/m2
16:40 27.3 °C 14.3 °C 1017.6 hPa ENE 1.4 km/h 9.7 km/h 45% 0.0 mm 436 W/m2
16:45 27.3 °C 14.3 °C 1017.6 hPa East 1.4 km/h 6.4 km/h 45% 0.0 mm 415 W/m2
16:50 27.3 °C 14.3 °C 1017.6 hPa East 4.7 km/h 9.7 km/h 45% 0.0 mm 404 W/m2
16:55 27.3 °C 14.3 °C 1017.6 hPa ESE 3.2 km/h 4.8 km/h 45% 0.0 mm 387 W/m2
17:00 27.3 °C 14.3 °C 1017.6 hPa East 3.2 km/h 6.4 km/h 45% 0.0 mm 371 W/m2
17:05 27.3 °C 14.3 °C 1017.6 hPa East 7.9 km/h 14.5 km/h 45% 0.0 mm 362 W/m2
17:10 27.1 °C 14.1 °C 1017.3 hPa East 4.7 km/h 9.7 km/h 45% 0.0 mm 350 W/m2
17:15 27.1 °C 14.5 °C 1017.3 hPa East 1.4 km/h 6.4 km/h 46% 0.0 mm 336 W/m2
17:20 27.1 °C 14.5 °C 1017.6 hPa East 4.7 km/h 6.4 km/h 46% 0.0 mm 329 W/m2
17:25 27.1 °C 14.5 °C 1017.6 hPa ENE 4.7 km/h 11.3 km/h 46% 0.0 mm 306 W/m2
17:30 27.1 °C 14.1 °C 1017.3 hPa East 4.7 km/h 6.4 km/h 45% 0.0 mm 285 W/m2
17:35 26.9 °C 14 °C 1017.3 hPa ESE 9.7 km/h 9.7 km/h 45% 0.0 mm 290 W/m2
17:40 26.8 °C 14.2 °C 1017.3 hPa ENE 3.2 km/h 6.4 km/h 46% 0.0 mm 279 W/m2
17:45 26.8 °C 14.2 °C 1017.3 hPa ESE 6.4 km/h 12.9 km/h 46% 0.0 mm 269 W/m2
17:50 26.7 °C 14.1 °C 1017.3 hPa NNE 3.2 km/h 9.7 km/h 46% 0.0 mm 251 W/m2
17:55 26.6 °C 14.4 °C 1017.3 hPa NNW 3.2 km/h 8 km/h 47% 0.0 mm 241 W/m2
18:00 26.6 °C 14 °C 1017.3 hPa ESE 3.2 km/h 9.7 km/h 46% 0.0 mm 121 W/m2
18:05 26.5 °C 14.3 °C 1017.3 hPa SSE 1.4 km/h 6.4 km/h 47% 0.0 mm 211 W/m2
18:10 26.3 °C 14.1 °C 1017.3 hPa ESE 1.4 km/h 11.3 km/h 47% 0.0 mm 200 W/m2
18:15 26.1 °C 13.9 °C 1017.3 hPa East 6.4 km/h 12.9 km/h 47% 0.0 mm 181 W/m2
18:20 26.1 °C 13.9 °C 1016.9 hPa NE 3.2 km/h 6.4 km/h 47% 0.0 mm 167 W/m2
18:25 26.1 °C 14.2 °C 1017.3 hPa SSE 3.2 km/h 12.9 km/h 48% 0.0 mm 155 W/m2
18:30 25.8 °C 13.6 °C 1017.3 hPa East 3.2 km/h 6.4 km/h 47% 0.0 mm 141 W/m2
18:35 25.7 °C 13.9 °C 1017.3 hPa ENE 3.2 km/h 6.4 km/h 48% 0.0 mm 123 W/m2
18:40 25.6 °C 13.8 °C 1017.3 hPa East 6.4 km/h 16.1 km/h 48% 0.0 mm 109 W/m2
18:45 25.3 °C 13.5 °C 1017.3 hPa East 3.2 km/h 6.4 km/h 48% 0.0 mm 60 W/m2
18:50 25.1 °C 13.6 °C 1017.3 hPa Calm   16.1 km/h 49% 0.0 mm 40 W/m2
18:55 24.8 °C 13.7 °C 1017.3 hPa East 3.2 km/h 9.7 km/h 50% 0.0 mm 37 W/m2
19:00 24.6 °C 13.8 °C 1017.3 hPa East 4.7 km/h 6.4 km/h 51% 0.0 mm 33 W/m2
19:05 24.4 °C 13.6 °C 1017.3 hPa East 1.4 km/h 9.7 km/h 51% 0.0 mm 30 W/m2
19:10 24.2 °C 13.7 °C 1017.3 hPa East 6.4 km/h 6.4 km/h 52% 0.0 mm 25 W/m2
19:15 24.1 °C 13.6 °C 1017.3 hPa East 1.4 km/h 4.8 km/h 52% 0.0 mm 19 W/m2
19:20 23.9 °C 13.4 °C 1017.3 hPa Calm   4.8 km/h 52% 0.0 mm 14 W/m2
19:25 23.8 °C 13.6 °C 1017.3 hPa East 1.4 km/h 3.2 km/h 53% 0.0 mm 12 W/m2
19:30 23.6 °C 13.7 °C 1017.3 hPa East 1.4 km/h 1.6 km/h 54% 0.0 mm 9 W/m2
19:35 23.3 °C 13.5 °C 1017.3 hPa ENE 1.4 km/h 6.4 km/h 54% 0.0 mm 7 W/m2
19:40 23.1 °C 13.6 °C 1017.3 hPa SE 1.4 km/h 4.8 km/h 55% 0.0 mm 0 W/m2
19:45 22.9 °C 13.7 °C 1017.6 hPa East 1.4 km/h 3.2 km/h 56% 0.0 mm 0 W/m2
19:50 22.7 °C 13.5 °C 1017.6 hPa Calm   1.6 km/h 56% 0.0 mm 0 W/m2
19:55 22.4 °C 13.5 °C 1017.3 hPa Calm     57% 0.0 mm 0 W/m2
20:00 22.2 °C 13.5 °C 1017.3 hPa Calm     58% 0.0 mm 0 W/m2
20:05 21.9 °C 13.5 °C 1017.3 hPa East 3.2 km/h 3.2 km/h 59% 0.0 mm 0 W/m2
20:10 21.7 °C 13.3 °C 1017.6 hPa Calm   1.6 km/h 59% 0.0 mm 0 W/m2
20:15 21.6 °C 13.2 °C 1017.6 hPa ESE 4.7 km/h 4.8 km/h 59% 0.0 mm 0 W/m2
20:20 21.5 °C 12.9 °C 1017.6 hPa East 9.7 km/h 11.3 km/h 58% 0.0 mm 0 W/m2
20:25 21.7 °C 13.1 °C 1017.6 hPa ENE 1.4 km/h 3.2 km/h 58% 0.0 mm 0 W/m2
20:30 21.7 °C 13.1 °C 1017.6 hPa ENE 1.4 km/h 6.4 km/h 58% 0.0 mm 0 W/m2
20:35 21.7 °C 13.1 °C 1017.3 hPa ENE 3.2 km/h 8 km/h 58% 0.0 mm 0 W/m2
20:40 21.7 °C 13.1 °C 1017.3 hPa East 3.2 km/h 3.2 km/h 58% 0.0 mm 0 W/m2
20:45 21.5 °C 12.9 °C 1017.6 hPa SSE 1.4 km/h 3.2 km/h 58% 0.0 mm 0 W/m2
20:50 21.3 °C 12.7 °C 1017.6 hPa SSE 1.4 km/h 3.2 km/h 58% 0.0 mm 0 W/m2
20:55 21.1 °C 12.8 °C 1017.6 hPa Calm     59% 0.0 mm 0 W/m2
21:00 20.9 °C 12.6 °C 1017.6 hPa SSE 1.4 km/h 6.4 km/h 59% 0.0 mm 0 W/m2
21:05 20.8 °C 12.7 °C 1017.6 hPa SSE 1.4 km/h 1.6 km/h 60% 0.0 mm 0 W/m2
21:10 20.7 °C 12.7 °C 1018.0 hPa ENE 4.7 km/h 4.8 km/h 60% 0.0 mm 0 W/m2
21:15 20.5 °C 12.7 °C 1017.6 hPa East 1.4 km/h 3.2 km/h 61% 0.0 mm 0 W/m2
21:20 20.3 °C 12.5 °C 1017.6 hPa Calm   1.6 km/h 61% 0.0 mm 0 W/m2
21:25 20.2 °C 12.7 °C 1017.6 hPa NE 1.4 km/h 6.4 km/h 62% 0.0 mm 0 W/m2
21:30 20.1 °C 12.6 °C 1017.6 hPa Calm   1.6 km/h 62% 0.0 mm 0 W/m2
21:35 20 °C 12.5 °C 1017.6 hPa Calm   1.6 km/h 62% 0.0 mm 0 W/m2
21:40 19.9 °C 12.4 °C 1018.0 hPa Calm   1.6 km/h 62% 0.0 mm 0 W/m2
21:45 19.8 °C 12.6 °C 1018.0 hPa Calm     63% 0.0 mm 0 W/m2
21:50 19.6 °C 12.4 °C 1018.0 hPa Calm   1.6 km/h 63% 0.0 mm 0 W/m2
21:55 19.6 °C 12.4 °C 1017.6 hPa Calm   6.4 km/h 63% 0.0 mm 0 W/m2
22:00 19.6 °C 12.4 °C 1018.0 hPa Calm   1.6 km/h 63% 0.0 mm 0 W/m2
22:05 19.6 °C 12.4 °C 1018.0 hPa Calm   1.6 km/h 63% 0.0 mm 0 W/m2
22:10 19.4 °C 12.4 °C 1018.0 hPa Calm     64% 0.0 mm 0 W/m2
22:15 19.3 °C 12.3 °C 1018.0 hPa SSW 1.4 km/h 3.2 km/h 64% 0.0 mm 0 W/m2
22:20 19.3 °C 12.3 °C 1018.0 hPa Calm     64% 0.0 mm 0 W/m2
22:25 19.2 °C 12.5 °C 1018.0 hPa Calm   1.6 km/h 65% 0.0 mm 0 W/m2
22:30 19.1 °C 12.4 °C 1018.0 hPa Calm   1.6 km/h 65% 0.0 mm 0 W/m2
22:35 18.9 °C 12.2 °C 1018.0 hPa East 1.4 km/h 1.6 km/h 65% 0.0 mm 0 W/m2
22:40 18.8 °C 12.1 °C 1018.0 hPa Calm     65% 0.0 mm 0 W/m2
22:45 18.7 °C 12.2 °C 1018.0 hPa Calm     66% 0.0 mm 0 W/m2
22:50 18.6 °C 12.1 °C 1018.0 hPa Calm   3.2 km/h 66% 0.0 mm 0 W/m2
22:56 18.4 °C 11.9 °C 1018.0 hPa Calm     66% 0.0 mm 0 W/m2
23:01 18.3 °C 12.1 °C 1018.0 hPa Calm   3.2 km/h 67% 0.0 mm 0 W/m2
23:06 18.2 °C 12 °C 1018.0 hPa Calm     67% 0.0 mm 0 W/m2
23:11 18.1 °C 11.9 °C 1018.0 hPa Calm     67% 0.0 mm 0 W/m2
23:16 17.9 °C 11.9 °C 1018.0 hPa Calm     68% 0.0 mm 0 W/m2
23:21 17.8 °C 11.8 °C 1018.0 hPa Calm     68% 0.0 mm 0 W/m2
23:26 17.7 °C 11.9 °C 1018.0 hPa Calm     69% 0.0 mm 0 W/m2
23:31 17.6 °C 11.8 °C 1018.0 hPa Calm     69% 0.0 mm 0 W/m2
23:36 17.4 °C 11.7 °C 1018.0 hPa Calm     69% 0.0 mm 0 W/m2
23:41 17.4 °C 11.9 °C 1018.0 hPa Calm     70% 0.0 mm 0 W/m2
23:46 17.3 °C 11.8 °C 1018.0 hPa Calm     70% 0.0 mm 0 W/m2
23:51 17.2 °C 11.9 °C 1018.0 hPa Calm   1.6 km/h 71% 0.0 mm 0 W/m2
23:56 17 °C 11.7 °C 1018.0 hPa Calm   1.6 km/h 71% 0.0 mm 0 W/m2
Juneau County Weather
Compliments of Weather Underground - 4 mb